Location: Lombard
(41.8800°N, 88.0080°W)
Time: 22:55:37
(UTC-06:00)

Vanguard 3 - Visible Passes

Search period start: 09 December 2023 00:00
Search period end: 19 December 2023 00:00
Orbit: 507 x 3241 km, 33.3° (Epoch: 09 December)

Date Brightness Start Highest point End Pass type
(mag) Time Alt. Az. Time Alt. Az. Time Alt. Az.
09 Dec 10.0 18:25:54 10° SSW 18:40:55 33° SSE 18:46:13 26° ESE visible
09 Dec 9.9 20:39:39 10° WSW 20:50:32 40° SSW 20:50:32 40° SSW visible
10 Dec 10.6 17:08:49 10° S 17:22:20 24° SE 17:33:12 10° E visible
10 Dec 9.6 19:20:07 10° SW 19:36:24 44° SSE 19:38:03 43° SSE visible
10 Dec 10.4 21:35:40 10° WSW 21:42:22 28° WSW 21:42:22 28° WSW visible
11 Dec 10.1 18:01:28 10° SSW 18:17:45 37° SSE 18:25:32 23° ESE visible
11 Dec 9.6 20:15:32 10° WSW 20:29:51 51° SSW 20:29:51 51° SSW visible
11 Dec 11.0 22:32:03 10° W 22:34:11 15° W 22:34:11 15° W visible
12 Dec 10.7 16:44:12 10° SSW 16:58:59 28° SE 17:11:12 10° E visible
12 Dec 9.6 18:55:53 10° SW 19:13:18 48° SSE 19:17:19 41° SE visible
12 Dec 10.1 21:11:41 10° WSW 21:21:38 38° WSW 21:21:38 38° WSW visible
13 Dec 10.3 17:37:12 10° SW 17:54:25 40° SSE 18:04:46 18° E visible
13 Dec 9.4 19:51:26 10° WSW 20:08:53 57° S 20:09:05 57° S visible
13 Dec 10.7 22:08:12 10° W 22:13:24 23° WSW 22:13:24 23° WSW visible
14 Dec 9.8 18:31:47 10° SW 18:50:03 52° SSE 18:56:31 35° ESE visible
14 Dec 9.8 20:47:41 10° WSW 21:00:50 50° SW 21:00:50 50° SW visible
14 Dec 11.2 23:04:53 10° W 23:05:08 11° W 23:05:08 11° W visible
15 Dec 10.5 17:13:07 10° SW 17:30:56 44° SSE 17:43:56 14° E visible
15 Dec 9.4 19:27:24 10° WSW 19:45:45 59° S 19:48:15 55° SE visible
15 Dec 10.4 21:44:16 10° W 21:52:33 32° WSW 21:52:33 32° WSW visible
16 Dec 10.0 18:07:48 10° SW 18:26:38 55° SSE 18:35:39 28° ESE visible
16 Dec 9.6 20:23:41 10° WSW 20:39:57 59° SSW 20:39:57 59° SSW visible
16 Dec 10.9 22:41:04 10° W 22:44:16 17° W 22:44:16 17° W visible
17 Dec 10.5 16:49:15 10° SW 17:07:18 46° SSE 17:22:37 10° E visible
17 Dec 9.6 19:03:27 10° WSW 19:22:28 62° S 19:27:21 47° ESE visible
17 Dec 10.1 21:20:18 10° W 21:31:40 41° WSW 21:31:40 41° WSW visible
18 Dec 10.2 17:43:59 10° WSW 18:03:05 57° SSE 18:14:45 22° E visible
18 Dec 9.5 19:59:43 10° W 20:18:13 62° S 20:19:04 61° S visible
18 Dec 10.7 22:17:10 10° W 22:23:23 24° W 22:23:23 24° W visible
